Location: Seminole
(32.7190°N, 102.6440°W)
Time: 14:36:15
(UTC-05:00)

Meteor 2-10 - Visible Passes

Search period start: 31 July 2014 00:00
Search period end: 10 August 2014 00:00
Orbit: 739 x 869 km, 81.2° (Epoch: 30 July)

Date Brightness Start Highest point End Pass type
(mag) Time Alt. Az. Time Alt. Az. Time Alt. Az.
01 Aug 6.8 21:36:44 10° NW 21:39:48 16° W 21:42:50 10° SW visible
02 Aug 6.5 21:10:01 10° NW 21:14:08 25° W 21:18:10 10° SW visible
06 Aug 7.3 21:10:39 10° WNW 21:12:14 11° W 21:13:48 10° WSW visible
